Regional Weather Roundup
Issued by NWS

Home | Current Version | Previous Version | Text Only | Print | Product List | Glossary Off
Versions: 1 2 3 4 5 6 7 8 9 10 11 12 13 14 15 16 17 18 19 20 21 22 23 24 25 26 27 28 29 30 31 32 33 34 35 36 37 38 39 40 41 42 43 44 45 46 47 48 49 50

000
ASUS43 KMPX 210001
RWRMN
WEATHER ROUNDUP FOR MINNESOTA
NATIONAL WEATHER SERVICE TWIN CITIES/CHANHASSEN MN
600 PM CST TUE FEB 20 2018


NOTE: "FAIR" INDICATES FEW OR NO CLOUDS BELOW 12,000 FEET WITH NO
SIGNIFICANT WEATHER AND/OR OBSTRUCTIONS TO VISIBILITY. N/A MEANS
CURRENT SKY AND/OR WEATHER CONDITIONS ARE NOT AVAILABLE.

MNZ060>063-068>070-210100-
   Twin Cities Metro

CITY           SKY/WX    TMP DP  RH WIND       PRES   REMARKS
TWIN CITIES    FAIR      18   9  68 W13       30.15R WCI   5
6HR MIN TEMP:  18; 6HR MAX TEMP:  21;

ST PAUL        FAIR      19   9  65 W16       30.16R WCI   4
CRYSTAL        FAIR      16   6  65 W13G23    30.14R WCI   2
LAKEVILLE      MOCLDY    14   9  79 W8        30.14R WCI   3
EDEN PRAIRIE   FAIR      16   6  65 W14G23    30.15R WCI   2
6HR MIN TEMP:  16; 6HR MAX TEMP:  21;

SOUTH ST PAUL  FAIR      19  10  67 W7        30.14R WCI  10
LAKE ELMO      CLOUDY    19  12  73 W9        30.12R WCI   9
$$
MNZ001>005-007-008-013>017-022>024-027-028-210100-
   Northwest Minnesota

CITY           SKY/WX    TMP DP  RH WIND       PRES   REMARKS
BEMIDJI        FAIR       5  -1  77 W12       30.10R WCI -11
HALLOCK        FAIR       3  -2  78 SW7       30.13R WCI  -9
ROSEAU         FAIR       9   1  72 W7        30.09R WCI  -3
WARROAD        FAIR       7   0  72 W10       30.08R WCI  -8
THIEF RVR FALL FAIR       5   0  79 W9        30.14R WCI  -9
CROOKSTON      FAIR       5   0  78 W8        30.18R WCI  -8
FOSSTON        MOCLDY     1  -2  85 SW5       30.14R WCI  -8
DETROIT LAKES  FLURRIES   9   3  78 W7        30.17R WCI  -3
MOORHEAD       FAIR       7   0  72 W10       30.22R WCI  -8
PARK RAPIDS    FAIR       5  -2  72 W15       30.11R WCI -13
MAHNOMEN       FAIR       3  -2  79 W6        30.15R WCI  -8
$$
MNZ006-009>011-018-025>026-210100-
   North Central Minnesota

CITY           SKY/WX    TMP DP  RH WIND       PRES   REMARKS
BAUDETTE       CLOUDY     8   1  73 W7        30.04R WCI  -3
FLAG ISLAND    CLOUDY     9   1  72 W9        30.04R WCI  -5
INTL FALLS     MOCLDY     9   3  77 W7        30.03R WCI  -2
6HR MIN TEMP:   8; 6HR MAX TEMP:  12; 6HR PCP:  0.01;

WASKISH        FAIR       7   1  78 W9        30.07R WCI  -7
BIG FORK       MOCLDY    12   3  67 W3        30.05R
LONGVILLE      FAIR      10   1  67 W7        30.10R WCI   0
GRAND RAPIDS   FAIR      10   3  73 NW12      30.07R WCI  -5
CRANE LAKE     FLURRIES   9   3  78 CALM      30.04R
ORR            CLOUDY    10   3  72 W6        29.99R WCI   1
COOK             N/A     10   7  85 W13       30.01R WCI  -5
WALKER         FAIR       8  -1  69 W10G16    30.10R WCI  -7
$$
MNZ012-019>021-037-210100-
   Northeast Minnesota

CITY           SKY/WX    TMP DP  RH WIND       PRES   REMARKS
DULUTH         MOCLDY    14   5  67 NW12      30.01R WCI   0
6HR MIN TEMP:   9; 6HR MAX TEMP:  17; 6HR PCP: TRACE;

ELY            CLOUDY     9   3  78 W7        29.98R WCI  -3
HIBBING        MOCLDY    11   4  73 W6        30.02R WCI   1
EVELETH        FLURRIES N/A N/A N/A W6        30.02R
DULUTH HARBOR  FAIR      18   9  68 W17       30.08R WCI   2
TWO HARBORS    CLOUDY    16   9  73 W8G16     30.00R WCI   5
G MARAIS ARPRT LGT SNOW   3  -2  78 W8        29.89R WCI -10
$$
MNZ029>031-032-039>041-046>048-054>057-064-210100-
   West Central Minnesota

CITY           SKY/WX    TMP DP  RH WIND       PRES   REMARKS
FERGUS FALLS   FAIR       5   0  78 NW7       30.22R WCI  -7
WHEATON        FAIR       9   0  66 W5        30.27R WCI   0
MORRIS         FAIR       7   1  78 W7        30.23R WCI  -5
ALEXANDRIA     FAIR       6   0  76 W12       30.18R WCI  -9
ELBOW LAKE     CLOUDY     7   2  78 NW7       30.21R WCI  -4
WADENA         FAIR       5   0  78 W9        30.15R WCI  -9
GLENWOOD       FAIR       7   1  78 W14       30.19R WCI -10
APPLETON       FAIR      10   3  72 NW8       30.26R WCI  -1
BENSON         FAIR       7   1  78 N10       30.24R WCI  -8
ORTONVILLE     FAIR      10   1  67 NW8       30.25R WCI  -1
MADISON        FAIR      12   3  67 W14       30.27R WCI  -3
WILLMAR        FAIR       9   3  78 NW14      30.23R WCI  -8
$$
MNZ033>034-036-042>043-049>051-058-059-210100-
   Central Minnesota

CITY           SKY/WX    TMP DP  RH WIND       PRES   REMARKS
ST CLOUD       FAIR      14   4  64 W17       30.14R WCI  -3
6HR MIN TEMP:  14; 6HR MAX TEMP:  18;

SAUK CENTRE    FAIR       8   1  72 W10       30.17R WCI  -7
PAYNESVILLE    FAIR       9   3  78 W12       30.18R WCI  -6
AITKIN         CLOUDY    16   3  57 NW7       30.06R WCI   6
PINE RIVER     FAIR      10   1  67 W9G17     30.14R WCI  -2
BRAINERD       FAIR      15   2  56 W10       30.10R WCI   2
STAPLES        FAIR       3  -2  78 W12       30.15R WCI -13
LONG PRAIRIE   FAIR       9   1  72 W12       30.16R WCI  -6
LITTLE FALLS   FAIR      12  -4  48 W12       30.15R WCI  -2
LITCHFIELD     FAIR      10   5  79 W12G18    30.19R WCI  -4
BUFFALO        FAIR      14   5  69 W14       30.17R WCI  -1
MAPLE LAKE     FAIR      14   7  73 W12       30.16R WCI   0
HUTCHINSON     FAIR      11   5  76 W14G20    30.19R WCI  -5
$$
MNZ037-044-045-052-053-210100-
   East Central Minnesota

CITY           SKY/WX    TMP DP  RH WIND       PRES   REMARKS
PRINCETON      FAIR      16   5  62 W14       30.13R WCI   1
MORA           FAIR      18   5  57 NW8       30.12R WCI   7
CAMBRIDGE      FAIR      18   7  62 W9        30.13R WCI   6
RUSH CITY      FAIR      17   7  66 W7        30.11R WCI   7
MOOSE LAKE     FAIR      16   5  62 W5        30.06R WCI   9
HINCKLEY       FAIR      18   9  68 W7        30.09R WCI   8
CLOQUET        FAIR      12   5  73 W6        30.03R WCI   3
MCGREGOR       FAIR      16   5  62 NW7       30.07R WCI   6
$$
MNZ071>073-080-081-089-090-097-098-210100-
   Southwest Minnesota

CITY           SKY/WX    TMP DP  RH WIND       PRES   REMARKS
MONTEVIDEO     FAIR      10   1  67 N10       30.25R WCI  -3
GRANITE FALLS  FAIR      12   6  75 W16G22    30.25R WCI  -4
CANBY          FAIR      11   3  71 NW10      30.26R WCI  -3
MARSHALL       FAIR       9   2  73 NW18      30.23R WCI -10
REDWOOD FALLS  CLOUDY    10   4  76 NW10      30.23R WCI  -4
OLIVIA         FAIR      12   5  73 NW14      30.22R WCI  -3
PIPESTONE      FAIR       9   1  72 NW15      30.20R WCI  -8
WORTHINGTON    FAIR       9   4  80 NW16      30.22R WCI  -8
JACKSON        FAIR      12   5  73 NW14G21   30.21R WCI  -3
TRACY          FAIR      10   5  78 NW9       30.23R WCI  -2
SLAYTON        FAIR       8   3  78 NW12      30.22R WCI  -7
$$
MNZ065>067-074>077-082>085-091>093-210100-
   South Central Minnesota

CITY           SKY/WX    TMP DP  RH WIND       PRES   REMARKS
MANKATO        MOCLDY    12   6  77 NW22      30.20R WCI  -7
NEW ULM        FAIR      10   3  72 NW18      30.22R WCI  -8
ST JAMES       MOCLDY    10   7  85 W15G23    30.23R WCI  -6
FAIRMONT       FAIR      11   6  81 NW17      30.22R WCI  -6
GLENCOE        FAIR      13   7  76 W15       30.18R WCI  -2
FARIBAULT      LGT SNOW  12   9  85 W8        30.18R WCI   1
OWATONNA       FLURRIES  12   7  79 CALM      30.16R
WASECA         FLURRIES  12   9  85 W9        30.20R WCI   0
ALBERT LEA     MOCLDY    12   7  79 NW7       30.17R WCI   2
$$
MNZ078>079-086>088-094>096-210100-
   Southeast Minnesota

CITY           SKY/WX    TMP DP  RH WIND       PRES   REMARKS
ROCHESTER      FLURRIES  15  11  83 W18       30.11R WCI  -2
6HR MIN TEMP:  15; 6HR MAX TEMP:  20; 6HR PCP: TRACE;

RED WING       MOCLDY    19  10  68 W12G17    30.14R WCI   7
STANTON        CLOUDY    16  10  78 W8        30.15R WCI   5
DODGE CENTER   FAIR      12   7  79 W9        30.12R WCI   0
WINONA         CLOUDY    21  16  79 W13       30.12R WCI   9
AUSTIN         CLOUDY    14   9  79 NW13      30.14R WCI   0
PRESTON        CLOUDY    16  12  84 NW10      30.12R WCI   3
$$
ABBREVIATIONS USED IN REMARKS
   TC - TEMPERATURES IN CELSIUS
  WCI - WIND CHILL INDEX
   HX - HEAT INDEX
  VSB - VISIBILITY
$$



USA.gov is the U.S. government's official web portal to all federal, state and local government web resources and services.